Weather History for KDAL - September, 2013

Change the Weather History Date:

Saturday, September 7, 2013

  Actual Average (KDFW) Record (KDFW)
Temperature  
Mean Temperature 90 °F 81 °F  
Max Temperature 100 °F 91 °F 104 °F (2012)
Min Temperature 80 °F 71 °F 56 °F (1918)
Degree Days  
Heating Degree Days 0 0  
Month to date heating degree days 0  
Since 1 July heating degree days 0  
Cooling Degree Days 24 16  
Month to date cooling degree days 119  
Year to date cooling degree days 2301  
Growing Degree Days 40 (Base 50)    
Moisture  
Dew Point 64 °F    
Average Humidity 44    
Maximum Humidity 67    
Minimum Humidity 25    
Precipitation  
Precipitation 0.00 in 0.09 in 1.44 in (1991)
Month to date precipitation 0.66  
Year to date precipitation 24.77  
Sea Level Pressure  
Sea Level Pressure 29.95 in    
Wind  
Wind Speed 7 mph (SSE)    
Max Wind Speed 21 mph    
Max Gust Speed 25 mph    
Visibility 10 miles    
Events      
T = Trace of Precipitation, MM = Missing Value Source: NWS Daily Summary

Daily Weather History Graph

Daily Weather History Graph

Search for Another Location

Airport or City:

Trip Planner

Search our weather history database for the weather conditions in past years. The results will help you decide how hot, cold, wet, or windy it might be!

Date:

Astronomy

Sep. 07, 2013 Rise Set
Actual Time 7:06 AM CDT 7:43 PM CDT
Civil Twilight 6:41 AM CDT 8:08 PM CDT
Nautical Twilight 6:11 AM CDT 8:38 PM CDT
Astronomical Twilight 5:41 AM CDT 9:08 PM CDT
Moon 9:11 AM CDT (9/7) 8:54 PM CDT (9/7)
Length of Visible Light 13h 27m
Length of Day
12h 37m
Waxing Crescent, 5% of the Moon is Illuminated
Sep 7
Waxing Crescent
Sep 12
First Quarter
Sep 19
Full
Sep 26
Last Quarter
Oct 4
New

Hourly Weather History & Observations

Time (CDT) Temp. Heat Index Dew Point Humidity Pressure Visibility Wind Dir Wind Speed Gust Speed Precip Events Conditions
12:53 AM 90.0 °F 89.7 °F 60.1 °F 37% 29.94 in 10.0 mi SSE 9.2 mph 19.6 mph N/A   Partly Cloudy
1:53 AM 87.1 °F 87.8 °F 63.0 °F 44% 29.95 in 10.0 mi South 6.9 mph - N/A   Partly Cloudy
2:53 AM 86.0 °F 88.2 °F 66.0 °F 51% 29.95 in 10.0 mi South 4.6 mph - N/A   Clear
3:53 AM 84.0 °F 86.5 °F 66.9 °F 56% 29.96 in 10.0 mi South 4.6 mph - N/A   Mostly Cloudy
4:53 AM 82.9 °F 85.4 °F 66.9 °F 58% 29.96 in 10.0 mi SSE 4.6 mph - N/A   Scattered Clouds
5:53 AM 82.9 °F 85.8 °F 68.0 °F 60% 29.97 in 10.0 mi South 5.8 mph - N/A   Mostly Cloudy
6:53 AM 80.1 °F 82.7 °F 68.0 °F 67% 29.99 in 10.0 mi SE 5.8 mph - N/A   Scattered Clouds
7:53 AM 81.0 °F 83.8 °F 68.0 °F 65% 29.99 in 10.0 mi South 5.8 mph - N/A   Scattered Clouds
8:53 AM 82.9 °F 86.5 °F 69.1 °F 63% 30.01 in 10.0 mi South 4.6 mph - N/A   Mostly Cloudy
9:53 AM 86.0 °F 90.1 °F 69.1 °F 57% 30.02 in 10.0 mi SE 6.9 mph - N/A   Mostly Cloudy
10:53 AM 91.0 °F 95.6 °F 69.1 °F 48% 30.02 in 10.0 mi South 5.8 mph - N/A   Scattered Clouds
11:53 AM 95.0 °F 97.9 °F 66.0 °F 38% 30.02 in 10.0 mi South 5.8 mph 16.1 mph N/A   Partly Cloudy
12:53 PM 97.0 °F 99.3 °F 64.0 °F 34% 29.99 in 10.0 mi South 10.4 mph - N/A   Scattered Clouds
1:53 PM 98.1 °F 98.6 °F 61.0 °F 29% 29.97 in 10.0 mi SE 6.9 mph - N/A   Scattered Clouds
2:53 PM 99.0 °F 99.5 °F 61.0 °F 28% 29.94 in 10.0 mi South 6.9 mph - N/A   Scattered Clouds
3:53 PM 99.0 °F 99.5 °F 60.1 °F 28% 29.91 in 10.0 mi Variable 3.5 mph - N/A   Scattered Clouds
4:53 PM 99.0 °F 99.5 °F 60.1 °F 28% 29.89 in 10.0 mi Variable 4.6 mph - N/A   Scattered Clouds
5:53 PM 98.1 °F 97.7 °F 59.0 °F 27% 29.88 in 10.0 mi SE 10.4 mph - N/A   Scattered Clouds
6:53 PM 98.1 °F 96.8 °F 57.0 °F 25% 29.89 in 10.0 mi ESE 5.8 mph - N/A   Partly Cloudy
7:53 PM 95.0 °F 94.4 °F 59.0 °F 30% 29.90 in 10.0 mi SSE 10.4 mph - N/A   Partly Cloudy
8:53 PM 91.9 °F 92.5 °F 62.1 °F 37% 29.92 in 10.0 mi South 20.7 mph 25.3 mph N/A   Partly Cloudy
9:53 PM 87.1 °F 88.3 °F 64.0 °F 46% 29.94 in 10.0 mi South 9.2 mph - N/A   Clear
10:53 PM 84.9 °F 86.6 °F 64.9 °F 51% 29.94 in 10.0 mi South 9.2 mph - N/A   Clear
11:53 PM 84.0 °F 85.8 °F 64.9 °F 53% 29.95 in 10.0 mi SSW 5.8 mph - N/A   Clear